Location: Caymus (historical)
(38.4055°N, 122.3636°W)
Time: 01:16:52
(UTC+00:00)

Daily predictions for brighter satellites

Satellite Brightness Start Highest point End
(mag) Time Altitude Azimuth Time Altitude Azimuth Time Altitude Azimuth
Lacrosse 5 rocket 1.4 01:10:43 10° SW 01:15:06 85° SE 01:19:16 10° NE
SMAP 3.3 01:12:23 10° SE 01:16:49 47° ENE 01:21:17 10° N
Cosmos 1869 Rocket 4.1 01:12:49 10° NNW 01:17:12 66° W 01:21:36 10° S
Cosmos 1844 3.9 01:13:53 10° NNW 01:19:35 82° WSW 01:25:10 10° SSE
Cosmos 2219 Rocket 2.4 01:17:13 10° SSW 01:22:48 75° WNW 01:28:27 10° NNE
ERBS 2.4 01:21:16 10° NNW 01:24:32 52° NE 01:27:49 10° ESE
ALOS 4.1 01:20:17 10° SSW 01:24:34 36° W 01:28:53 10° NNW
Feng Yun 1-1 Rocket 4.2 01:19:20 10° SSE 01:24:37 60° ENE 01:29:56 10° N
CORIOLIS 4.4 01:19:42 10° SE 01:24:56 50° ENE 01:30:11 10° N
SL-4 R/B 3.3 01:21:44 10° W 01:24:58 28° NNW 01:28:25 10° NE
Cosmos 1844 Rocket 3.8 01:27:31 10° NW 01:32:51 49° WSW 01:38:12 10° S
USA 267 3.3 01:27:41 10° SE 01:34:13 83° NE 01:40:47 10° NW
Cosmos 304 Rocket 3.7 01:29:48 10° NNW 01:34:38 84° ENE 01:39:26 10° SSE
Okean O Rocket 3.5 01:31:40 10° SSW 01:35:36 34° W 01:39:34 10° NNW
Cosmos 1980 3.8 01:30:59 10° S 01:36:28 56° ESE 01:41:59 10° NNE
ATLAS 3B R/B 3.0 01:33:37 10° NW 01:40:21 73° WSW 01:47:16 10° SSE
Cosmos 2242 Rocket 4.0 01:36:59 10° SSE 01:41:15 42° E 01:45:35 10° NNE
Cosmos 1862 Rocket 3.5 01:38:10 10° S 01:42:28 73° E 01:46:50 10° NNE
Shenzhou-11 Module 2.8 01:40:28 10° WNW 01:42:58 31° N 01:44:31 17° NE
Cosmos 1346 Rocket 4.3 01:39:22 10° NNW 01:43:05 40° W 01:46:50 10° SSW
Cosmos 1302 Rocket 4.4 01:43:17 10° NNW 01:48:32 70° WSW 01:53:43 10° S
Okean-O 2.7 01:44:28 10° SSE 01:48:47 55° ENE 01:53:08 10° N
Cosmos 1666 3.7 01:45:56 10° NNE 01:49:02 24° ENE 01:52:05 10° SE
COSMOS 2428 3.7 01:44:33 10° SW 01:49:58 46° WNW 01:55:26 10° N
Aureole 1 Rocket 3.2 01:48:55 10° SSE 01:51:27 25° ESE 01:52:16 22° ENE
IRS-1C Rocket 4.5 01:46:33 10° S 01:51:48 69° WSW 01:57:04 10° NNW
Cosmos 2251 Rocket 3.6 01:46:31 10° SSW 01:51:51 87° WNW 01:57:10 10° NNE
OAO 3 Rocket 3.9 01:52:21 10° SW 01:56:47 42° SSE 02:00:07 17° E
NOSS 2 (A) 3.8 01:55:04 10° NNW 01:57:24 59° NE 01:59:06 16° SE
Meteor 1-5 Rocket 4.3 01:52:11 10° NNW 01:57:43 79° W 02:03:04 10° S
ISS -2.6 01:58:19 10° NNW 02:01:11 25° NNE 02:01:40 24° NE
STARLINK-60 3.0 02:01:08 10° SW 02:04:29 73° SE 02:05:57 31° ENE
OAO 2 Rocket 3.8 02:02:41 10° WSW 02:07:33 52° S 02:10:42 21° ESE
FengYun 1-2 T 4.2 02:02:14 10° SSE 02:07:35 56° ENE 02:12:56 10° N
NOSS 0 Rocket 4.3 02:04:25 10° SSW 02:10:34 66° WNW 02:16:47 10° NNE
RESURS DK-1 4.4 02:08:39 10° WSW 02:12:04 25° WNW 02:15:30 10° N
Cosmos 1092 Rocket 3.9 02:06:48 10° S 02:13:05 74° E 02:19:22 10° N
Envisat 2.9 02:08:15 10° SSE 02:13:20 88° ENE 02:18:27 10° NNW
Cosmos 1812 4.1 02:10:18 10° SSW 02:13:56 39° W 02:17:35 10° N
Cosmos 614 Rocket 4.4 02:12:19 10° SSE 02:16:59 37° ESE 02:18:34 29° ENE
Cosmos 1908 Rocket 3.4 02:17:02 10° N 02:21:26 70° E 02:25:45 10° SSE
COSMO-SKYMED 1 2.5 02:18:36 10° N 02:22:58 85° WNW 02:27:18 10° SSW
Cosmos 407 Rocket 3.8 02:18:55 10° S 02:23:43 41° ESE 02:25:14 33° ENE
ATLAS 5 CENTAUR R/B 3.2 02:25:25 10° W 02:27:02 16° NW 02:27:37 14° NNW
Cosmos 2278 Rocket 2.3 02:21:48 10° NNW 02:27:29 78° WSW 02:33:06 10° SSE
YAOGAN 1 2.6 02:23:50 10° SSE 02:28:02 53° ENE 02:32:15 10° N
Cosmos 1140 Rocket 4.3 02:23:44 10° SSE 02:27:41 30° ESE 02:27:41 30° ESE
Cosmos 1992 Rocket 4.2 02:28:37 10° NNW 02:33:49 73° WSW 02:39:01 10° S
USA 116 4.3 02:28:48 10° NNE 02:34:06 79° ESE 02:39:12 10° S
SL-16 R/B 2.2 02:31:52 10° S 02:37:27 62° ESE 02:39:37 37° NE
FALCON 9 DEB 3.2 02:35:31 10° SW 02:39:00 70° NW 02:39:04 69° NNW
NOAA 15 4.4 02:34:26 10° SSE 02:39:42 77° ENE 02:44:57 10° N
Cosmos 1536 4.1 02:37:46 10° NNW 02:41:34 41° W 02:45:18 10° SSW
CZ-4 R/B 1.4 02:39:38 10° S 02:43:35 74° WSW 02:47:28 10° NNW
Okean 1-7 3.1 02:40:19 10° S 02:44:36 78° W 02:46:51 28° N
Atlas Centaur 2 4.3 02:37:57 10° WSW 02:44:58 34° SSW 02:52:08 11° SE
YAOGAN 6 3.6 02:43:00 10° S 02:46:22 45° W 02:49:48 10° NNW
BREEZE-M DEB (TANK) 3.7 02:43:25 10° NW 02:45:50 24° NNW 02:45:50 24° NNW
Cosmos 1900 4.2 02:44:42 10° NNW 02:49:36 90° NE 02:51:46 34° SSE
Cosmos 2237 Rocket 3.5 02:44:51 10° SW 02:50:07 38° WNW 02:55:05 12° N
Lacrosse 5 rocket 3.6 02:52:02 10° WNW 02:54:42 16° NNW 02:55:43 15° NNW
STARLINK-52 4.3 02:54:07 10° WSW 02:56:45 44° W 02:56:45 44° W
Okean 1 3.8 02:57:24 10° SSW 03:00:37 54° SW 03:00:37 54° SW
Cosmos 1553 Rocket 3.9 02:56:20 10° N 03:02:40 67° E 03:09:01 10° SSE
Meteor 2-13 Rocket 4.4 03:03:31 10° S 03:08:42 60° SE 03:08:42 60° SE
Cosmos 1190 Rocket 4.0 03:09:10 10° SSW 03:14:21 75° WNW 03:14:33 74° NW
Meteor 1-18 Rocket 4.4 03:09:17 10° SSW 03:15:02 69° W 03:17:26 36° N
Cosmos 1782 Rocket 4.3 03:11:26 10° NNW 03:15:38 50° W 03:19:49 10° SSW
Cosmos 2297 4.2 03:22:36 10° NNW 03:26:56 53° NNW 03:26:56 53° NNW
Cosmos 1655 Rocket 4.1 03:29:04 10° SSW 03:35:24 75° W 03:35:36 74° WNW
SL-16 R/B 4.4 04:18:00 10° W 04:21:33 19° WNW 04:21:33 19° WNW
SL-16 R/B 4.5 11:34:55 20° E 11:34:55 20° E 11:37:26 10° ESE
USA 234 4.5 11:42:57 10° NE 11:46:22 34° NE 11:46:22 34° NE
